Miscellaneous Local Product
Issued by NWS Hastings, NE

Home | Current Version | Previous Version | Graphics & Text | Print | Product List | Glossary On
Versions: 1 2 3 4 5 6 7 8 9 10 11 12 13 14 15 16 17 18 19 20 21 22 23 24 25 26 27 28 29 30 31 32 33 34 35 36 37 38 39 40 41 42 43 44 45 46 47 48 49 50
000
AXUS43 KGID 280802
MISGRI

GID CWA HOURLY WEATHER ROUNDUP
NATIONAL WEATHER SERVICE HASTINGS NE
200 AM CST TUE FEB 28 2017

NOTE: "FAIR" INDICATES FEW OR NO CLOUDS BELOW 12,000 FEET WITH NO
SIGNIFICANT WEATHER AND/OR OBSTRUCTIONS TO VISIBILITY.

...SOUTH CENTRAL NEBRASKA...

CITY           SKY/WX    TMP DP  RH WIND       PRES   REMARKS
GRAND ISLAND   CLOUDY    37  37 100 CALM      29.56S
HASTINGS       CLEAR     39  37  92 S6        29.55F WCI  35
KEARNEY        CLOUDY    37  34  87 S7        29.56R WCI  32
ORD            CLEAR     33  31  92 N6        29.56F FOG     WCI  28
YORK           CLOUDY    41  39  93 SE9       29.57R
AURORA         CLOUDY    36  35  97 SE6       29.55S WCI  31
LEXINGTON      CLOUDY    35  25  68 NW9       29.57R WCI  27
HOLDREGE       CLOUDY    40  30  66 SW14      29.57R WCI  32
HEBRON         CLOUDY    46  41  83 S16       29.57F

...NEBRASKA PANHANDLE...

CITY           SKY/WX    TMP DP  RH WIND       PRES   REMARKS
CHADRON        FOG       18  16  92 CALM      29.69R VSB 1/4
ALLIANCE       CLOUDY    21  19  92 W12       29.68S WCI   9
SCOTTSBLUFF    CLOUDY    28  21  75 W9        29.71R WCI  19
SIDNEY         CLOUDY    27  22  81 NW13      29.70R WCI  16

...WESTERN AND NORTH CENTRAL NEBRASKA...

CITY           SKY/WX    TMP DP  RH WIND       PRES   REMARKS
VALENTINE      CLEAR     28  22  78 CALM      29.66F
AINSWORTH      CLOUDY    28  27  96 N8        29.64S WCI  20
ONEILL         PTCLDY    31  29  94 N6        29.64R WCI  25
BROKEN BOW     CLEAR     32  28  85 N10       29.58R WCI  24
IMPERIAL       CLEAR     31  21  66 NW15      29.68R WCI  20
NORTH PLATTE   CLEAR     33  27  78 NW9       29.63R WCI  25
MCCOOK         CLOUDY    38  24  57 W15       29.64R WCI  29

...EASTERN NEBRASKA...

CITY           SKY/WX    TMP DP  RH WIND       PRES   REMARKS
NORFOLK        CLOUDY    35  30  82 E5        29.59F WCI  31
SO SIOUX CITY  CLOUDY    38  30  73 E5        29.63F WCI  34
TEKAMAH        CLOUDY    34  30  85 CALM      29.61F
COLUMBUS       CLOUDY    36  30  80 NE8       29.58F WCI  29
ALBION         CLOUDY    33  30  90 NW3       29.58S
OMAHA EPPLEY   MOCLDY    42  34  73 SE8       29.61F
OFFUTT AFB     CLOUDY    49  41  75 SE8       29.60F
MILLARD        CLOUDY    46  39  77 SE3       29.60F
LINCOLN        PTCLDY    40  38  93 SE6       29.58F
NEBRASKA CITY  CLOUDY    52  41  68 SE9       29.62F
BEATRICE       CLEAR     47  46  96 SE9       29.58F
FALLS CITY     CLOUDY    52  50  93 SE10      29.62F

...NORTHERN KANSAS...

CITY           SKY/WX    TMP DP  RH WIND       PRES   REMARKS
GOODLAND       CLOUDY    31  20  63 W16       29.69R WCI  20
HILL CITY      CLOUDY    51  20  29 W18G28    29.62R
NORTON         SUNNY     39  16  38 W16       29.61R WCI  30
PHILLIPSBURG   CLEAR     45  21  39 SW15      29.60R
SMITH CENTER   CLEAR     36  34  93 SW8       29.60R WCI  29
HAYS             N/A     41  20  43 CALM      29.64R
RUSSELL        CLOUDY    45  22  40 SW12      29.62R
CONCORDIA      CLEAR     49  40  71 S20       29.60S
SALINA         CLEAR     56  50  80 SW15      29.66R
TOPEKA         CLOUDY    64  59  83 S24G32    29.66F



USA.gov is the U.S. government's official web portal to all federal, state and local government web resources and services.